Time,TemperatureF,DewpointF,PressureIn,WindDirection,WindDirectionDegrees,WindSpeedMPH,WindSpeedGustMPH,Humidity,HourlyPrecipIn,Conditions,Clouds,dailyrainin,SoftwareType,DateUTC
2013-03-20 00:04:00,63.8,63.0,29.97,ESE,113,0.0,0.0,97,0.00,,,0.00,weatherlink.com 1.10,2013-03-20 04:04:00,
2013-03-20 00:19:00,63.8,63.0,29.97,East,81,0.0,0.0,97,0.00,,,0.00,weatherlink.com 1.10,2013-03-20 04:19:00,
2013-03-20 00:34:00,63.7,63.0,29.96,ENE,74,0.0,0.0,97,0.00,,,0.00,weatherlink.com 1.10,2013-03-20 04:34:00,
2013-03-20 00:49:00,63.5,63.0,29.95,ENE,73,0.0,0.0,97,0.00,,,0.00,weatherlink.com 1.10,2013-03-20 04:49:00,
2013-03-20 01:04:00,63.2,63.0,29.95,ENE,74,0.0,0.0,98,0.00,,,0.00,weatherlink.com 1.10,2013-03-20 05:04:00,
2013-03-20 01:19:00,62.9,62.0,29.95,WNW,290,0.0,0.0,98,0.00,,,0.00,weatherlink.com 1.10,2013-03-20 05:19:00,
2013-03-20 01:35:00,62.5,62.0,29.94,West,274,0.0,0.0,98,0.00,,,0.00,weatherlink.com 1.10,2013-03-20 05:35:00,
2013-03-20 01:50:00,62.3,62.0,29.94,West,275,0.0,1.0,98,0.00,,,0.00,weatherlink.com 1.10,2013-03-20 05:50:00,
2013-03-20 02:05:00,63.3,63.0,29.94,WNW,294,0.0,1.0,99,0.00,,,0.00,weatherlink.com 1.10,2013-03-20 06:05:00,
2013-03-20 02:20:00,62.9,62.0,29.94,ENE,70,0.0,1.0,98,0.00,,,0.00,weatherlink.com 1.10,2013-03-20 06:20:00,
2013-03-20 02:35:00,62.8,62.0,29.93,ENE,70,0.0,0.0,98,0.00,,,0.00,weatherlink.com 1.10,2013-03-20 06:35:00,
2013-03-20 02:50:00,62.8,62.0,29.93,ENE,70,0.0,0.0,98,0.00,,,0.00,weatherlink.com 1.10,2013-03-20 06:50:00,
2013-03-20 03:05:00,62.9,63.0,29.93,ENE,70,0.0,0.0,99,0.00,,,0.00,weatherlink.com 1.10,2013-03-20 07:05:00,
2013-03-20 03:20:00,62.1,62.0,29.92,SE,131,0.0,0.0,98,0.00,,,0.00,weatherlink.com 1.10,2013-03-20 07:20:00,
2013-03-20 03:35:00,62.3,62.0,29.91,SE,131,0.0,0.0,99,0.00,,,0.00,weatherlink.com 1.10,2013-03-20 07:35:00,
2013-03-20 03:50:00,61.5,61.0,29.91,SE,131,0.0,0.0,98,0.00,,,0.00,weatherlink.com 1.10,2013-03-20 07:50:00,
2013-03-20 04:05:00,60.9,60.0,29.91,SE,131,0.0,0.0,98,0.00,,,0.00,weatherlink.com 1.10,2013-03-20 08:05:00,
2013-03-20 04:20:00,61.3,61.0,29.91,SE,131,0.0,0.0,99,0.00,,,0.00,weatherlink.com 1.10,2013-03-20 08:20:00,
2013-03-20 04:35:00,60.9,61.0,29.92,SE,131,0.0,0.0,99,0.00,,,0.00,weatherlink.com 1.10,2013-03-20 08:35:00,
2013-03-20 04:50:00,60.7,61.0,29.92,SE,132,0.0,0.0,99,0.00,,,0.00,weatherlink.com 1.10,2013-03-20 08:50:00,
2013-03-20 05:05:00,60.8,61.0,29.92,SE,132,0.0,0.0,99,0.00,,,0.00,weatherlink.com 1.10,2013-03-20 09:05:00,
2013-03-20 05:20:00,60.9,61.0,29.91,SE,133,0.0,0.0,99,0.00,,,0.00,weatherlink.com 1.10,2013-03-20 09:20:00,
2013-03-20 05:35:00,60.6,60.0,29.92,SE,132,0.0,0.0,99,0.00,,,0.00,weatherlink.com 1.10,2013-03-20 09:35:00,
2013-03-20 05:50:00,60.5,60.0,29.91,SE,132,0.0,0.0,99,0.00,,,0.00,weatherlink.com 1.10,2013-03-20 09:50:00,
2013-03-20 06:05:00,60.8,61.0,29.91,SE,133,0.0,0.0,99,0.00,,,0.00,weatherlink.com 1.10,2013-03-20 10:05:00,
2013-03-20 06:20:00,60.9,61.0,29.92,SE,132,0.0,0.0,99,0.00,,,0.00,weatherlink.com 1.10,2013-03-20 10:20:00,
2013-03-20 06:35:00,61.1,61.0,29.93,South,169,0.0,0.0,99,0.00,,,0.00,weatherlink.com 1.10,2013-03-20 10:35:00,
2013-03-20 06:50:00,61.4,61.0,29.94,NW,315,0.0,1.0,99,0.00,,,0.00,weatherlink.com 1.10,2013-03-20 10:50:00,
2013-03-20 07:05:00,61.4,61.0,29.95,NW,314,0.0,0.0,99,0.00,,,0.00,weatherlink.com 1.10,2013-03-20 11:05:00,
2013-03-20 07:20:00,61.6,61.0,29.95,NW,315,0.0,1.0,99,0.00,,,0.00,weatherlink.com 1.10,2013-03-20 11:20:00,
2013-03-20 07:35:00,62.1,62.0,29.95,NW,306,0.0,0.0,99,0.00,,,0.00,weatherlink.com 1.10,2013-03-20 11:35:00,
2013-03-20 07:50:00,62.4,62.0,29.95,WNW,294,0.0,0.0,99,0.00,,,0.00,weatherlink.com 1.10,2013-03-20 11:50:00,
2013-03-20 08:05:00,62.5,62.0,29.96,NW,311,0.0,1.0,99,0.00,,,0.00,weatherlink.com 1.10,2013-03-20 12:05:00,
2013-03-20 08:20:00,62.6,62.0,29.96,NW,321,0.0,0.0,99,0.00,,,0.00,weatherlink.com 1.10,2013-03-20 12:20:00,
2013-03-20 08:35:00,62.6,62.0,29.97,NW,321,0.0,0.0,99,0.00,,,0.00,weatherlink.com 1.10,2013-03-20 12:35:00,
2013-03-20 08:50:00,62.8,63.0,29.98,North,10,2.0,5.0,99,0.00,,,0.00,weatherlink.com 1.10,2013-03-20 12:50:00,
2013-03-20 09:05:00,63.1,63.0,30.00,SSW,195,9.0,10.0,99,0.01,,,0.01,weatherlink.com 1.10,2013-03-20 13:05:00,
2013-03-20 09:20:00,64.3,64.0,30.00,SSE,157,0.0,4.0,99,0.02,,,0.02,weatherlink.com 1.10,2013-03-20 13:20:00,
2013-03-20 09:35:00,65.0,64.0,30.02,WSW,238,8.0,11.0,97,0.03,,,0.03,weatherlink.com 1.10,2013-03-20 13:35:00,
2013-03-20 09:50:00,65.4,65.0,29.97,WNW,285,7.0,13.0,97,0.04,,,0.04,weatherlink.com 1.10,2013-03-20 13:50:00,
2013-03-20 10:05:00,65.8,64.0,29.98,WNW,299,13.0,16.0,95,0.03,,,0.04,weatherlink.com 1.10,2013-03-20 14:05:00,
2013-03-20 10:20:00,66.0,65.0,30.01,WNW,293,10.0,17.0,95,0.02,,,0.04,weatherlink.com 1.10,2013-03-20 14:20:00,
2013-03-20 10:35:00,66.3,65.0,30.00,NW,309,5.0,14.0,95,0.01,,,0.04,weatherlink.com 1.10,2013-03-20 14:35:00,
2013-03-20 10:50:00,66.9,63.0,29.98,NW,306,7.0,15.0,86,0.01,,,0.05,weatherlink.com 1.10,2013-03-20 14:50:00,
2013-03-20 11:06:00,68.5,63.0,29.95,NW,326,1.0,7.0,82,0.01,,,0.05,weatherlink.com 1.10,2013-03-20 15:06:00,
2013-03-20 11:36:00,72.6,64.0,29.91,South,184,5.0,6.0,74,0.01,,,0.05,weatherlink.com 1.10,2013-03-20 15:36:00,
2013-03-20 12:06:00,76.3,63.0,29.92,South,180,2.0,7.0,64,0.00,,,0.05,weatherlink.com 1.10,2013-03-20 16:06:00,
2013-03-20 12:21:00,77.7,63.0,29.92,SW,219,4.0,8.0,61,0.00,,,0.05,weatherlink.com 1.10,2013-03-20 16:21:00,
2013-03-20 12:36:00,78.8,65.0,29.92,SW,221,1.0,6.0,63,0.00,,,0.05,weatherlink.com 1.10,2013-03-20 16:36:00,
2013-03-20 12:51:00,80.8,60.0,29.93,WNW,297,4.0,11.0,50,0.00,,,0.05,weatherlink.com 1.10,2013-03-20 16:51:00,
2013-03-20 13:06:00,80.3,59.0,29.93,WSW,252,10.0,15.0,48,0.00,,,0.05,weatherlink.com 1.10,2013-03-20 17:06:00,
2013-03-20 13:21:00,78.5,60.0,29.93,WNW,290,13.0,15.0,53,0.00,,,0.05,weatherlink.com 1.10,2013-03-20 17:21:00,
2013-03-20 13:36:00,76.5,60.0,29.93,West,263,10.0,15.0,57,0.00,,,0.05,weatherlink.com 1.10,2013-03-20 17:36:00,
2013-03-20 14:06:00,75.0,62.0,29.91,WNW,285,8.0,12.0,65,0.00,,,0.05,weatherlink.com 1.10,2013-03-20 18:06:00,
2013-03-20 14:21:00,74.8,62.0,29.90,West,276,3.0,10.0,64,0.00,,,0.05,weatherlink.com 1.10,2013-03-20 18:21:00,
2013-03-20 14:36:00,74.9,62.0,29.89,SW,226,7.0,11.0,64,0.00,,,0.05,weatherlink.com 1.10,2013-03-20 18:36:00,
2013-03-20 14:51:00,75.3,61.0,29.88,SW,214,8.0,12.0,62,0.00,,,0.05,weatherlink.com 1.10,2013-03-20 18:51:00,
2013-03-20 15:06:00,74.7,62.0,29.88,SSW,207,6.0,14.0,65,0.00,,,0.05,weatherlink.com 1.10,2013-03-20 19:06:00,
2013-03-20 15:21:00,73.9,63.0,29.88,West,276,9.0,17.0,69,0.00,,,0.05,weatherlink.com 1.10,2013-03-20 19:21:00,
2013-03-20 15:36:00,73.5,62.0,29.87,West,259,7.0,14.0,68,0.00,,,0.05,weatherlink.com 1.10,2013-03-20 19:36:00,
2013-03-20 15:51:00,73.3,61.0,29.84,West,278,13.0,16.0,65,0.00,,,0.05,weatherlink.com 1.10,2013-03-20 19:51:00,
2013-03-20 16:06:00,72.4,60.0,29.85,WSW,257,5.0,13.0,66,0.00,,,0.05,weatherlink.com 1.10,2013-03-20 20:06:00,
2013-03-20 16:21:00,71.9,61.0,29.86,SW,221,4.0,11.0,68,0.00,,,0.05,weatherlink.com 1.10,2013-03-20 20:21:00,
2013-03-20 16:51:00,70.8,62.0,29.83,WSW,252,4.0,11.0,73,0.00,,,0.05,weatherlink.com 1.10,2013-03-20 20:51:00,
2013-03-20 17:06:00,70.7,62.0,29.81,SW,214,3.0,5.0,74,0.00,,,0.05,weatherlink.com 1.10,2013-03-20 21:06:00,
2013-03-20 17:21:00,70.2,62.0,29.83,WSW,248,0.0,4.0,76,0.00,,,0.05,weatherlink.com 1.10,2013-03-20 21:21:00,
2013-03-20 17:37:00,69.9,62.0,29.84,West,273,2.0,5.0,77,0.00,,,0.05,weatherlink.com 1.10,2013-03-20 21:37:00,
2013-03-20 17:52:00,69.7,63.0,29.85,WSW,256,4.0,10.0,79,0.00,,,0.05,weatherlink.com 1.10,2013-03-20 21:52:00,
2013-03-20 18:07:00,68.8,63.0,29.86,SW,217,3.0,9.0,82,0.00,,,0.05,weatherlink.com 1.10,2013-03-20 22:07:00,
2013-03-20 18:22:00,67.3,63.0,29.87,SW,229,8.0,8.0,87,0.00,,,0.05,weatherlink.com 1.10,2013-03-20 22:22:00,
2013-03-20 18:37:00,66.7,64.0,29.89,SSW,207,3.0,6.0,90,0.00,,,0.05,weatherlink.com 1.10,2013-03-20 22:37:00,
2013-03-20 18:52:00,66.2,64.0,29.89,SW,233,4.0,6.0,92,0.01,,,0.06,weatherlink.com 1.10,2013-03-20 22:52:00,
2013-03-20 19:07:00,65.8,64.0,29.89,West,269,2.0,5.0,93,0.03,,,0.08,weatherlink.com 1.10,2013-03-20 23:07:00,
2013-03-20 19:22:00,65.6,64.0,29.88,WSW,253,2.0,4.0,93,0.04,,,0.09,weatherlink.com 1.10,2013-03-20 23:22:00,
2013-03-20 19:37:00,65.6,64.0,29.89,WNW,286,2.0,3.0,94,0.04,,,0.09,weatherlink.com 1.10,2013-03-20 23:37:00,
2013-03-20 19:52:00,65.7,64.0,29.91,WNW,303,5.0,6.0,94,0.03,,,0.09,weatherlink.com 1.10,2013-03-20 23:52:00,
2013-03-20 20:07:00,65.6,64.0,29.94,WNW,288,8.0,12.0,94,0.02,,,0.10,weatherlink.com 1.10,2013-03-21 00:07:00,
2013-03-20 20:37:00,64.9,64.0,29.95,WNW,297,9.0,21.0,95,0.04,,,0.13,weatherlink.com 1.10,2013-03-21 00:37:00,
2013-03-20 20:52:00,64.6,63.0,29.92,WNW,294,7.0,18.0,95,0.07,,,0.16,weatherlink.com 1.10,2013-03-21 00:52:00,
2013-03-20 21:07:00,64.3,63.0,29.90,WNW,299,2.0,9.0,95,0.07,,,0.17,weatherlink.com 1.10,2013-03-21 01:07:00,
2013-03-20 21:22:00,64.1,63.0,29.90,WNW,295,3.0,7.0,95,0.05,,,0.17,weatherlink.com 1.10,2013-03-21 01:22:00,
2013-03-20 21:37:00,64.0,63.0,29.89,WNW,283,5.0,7.0,96,0.04,,,0.17,weatherlink.com 1.10,2013-03-21 01:37:00,
2013-03-20 21:52:00,63.8,62.0,29.89,SW,229,0.0,4.0,95,0.01,,,0.17,weatherlink.com 1.10,2013-03-21 01:52:00,
2013-03-20 22:07:00,63.7,62.0,29.90,WSW,256,2.0,4.0,95,0.00,,,0.17,weatherlink.com 1.10,2013-03-21 02:07:00,
2013-03-20 22:22:00,63.8,63.0,29.91,WSW,252,3.0,6.0,96,0.00,,,0.17,weatherlink.com 1.10,2013-03-21 02:22:00,
2013-03-20 22:37:00,63.9,63.0,29.91,SW,222,2.0,6.0,95,0.00,,,0.17,weatherlink.com 1.10,2013-03-21 02:37:00,
2013-03-20 22:52:00,63.8,62.0,29.90,West,262,2.0,6.0,95,0.00,,,0.17,weatherlink.com 1.10,2013-03-21 02:52:00,
2013-03-20 23:07:00,63.7,62.0,29.90,WNW,283,3.0,5.0,95,0.00,,,0.17,weatherlink.com 1.10,2013-03-21 03:07:00,
2013-03-20 23:22:00,63.9,63.0,29.91,WSW,257,1.0,3.0,95,0.00,,,0.17,weatherlink.com 1.10,2013-03-21 03:22:00,
2013-03-20 23:37:00,64.3,63.0,29.90,West,259,2.0,3.0,96,0.00,,,0.17,weatherlink.com 1.10,2013-03-21 03:37:00,
2013-03-20 23:52:00,64.2,63.0,29.90,West,269,1.0,4.0,95,0.00,,,0.17,weatherlink.com 1.10,2013-03-21 03:52:00,